Location: Newark
(34.9500°N, 139.9667°E)
Time: 17:21:05
(UTC+00:00)

Vanguard 1 Rocket - Pass Details

Date: 11 December 2019
Orbit: 650 x 4226 km, 34.3° (Epoch: 25 January)

Event Time Altitude Azimuth Distance (km) Brightness Sun altitude
Rises 08:15:50 0° 209° (SSW) 8,451 13.2 -9.6°
Reaches altitude 10° 08:22:52 10° 201° (SSW) 7,388 12.6 -10.9°
Maximum altitude 08:43:21 35° 146° (SE) 4,672 10.8 -14.9°
Enters shadow 08:54:45 16° 96° (E) 4,797 10.5 -17.1°
Drops below altitude 10° 08:57:04 10° 89° (E) 5,073 - -17.6°
Sets 09:00:40 0° 80° (E) 5,645 - -18.3°
